Year,Month,Day,Hour,Minute,Value (Times are PST for temperature in C)
2011,07,22,00,00,12.10
2011,07,22,00,01,12.10
2011,07,22,00,02,12.10
2011,07,22,00,03,12.10
2011,07,22,00,04,12.10
2011,07,22,00,05,12.10
2011,07,22,00,06,12.10
2011,07,22,00,07,12.10
2011,07,22,00,08,12.10
2011,07,22,00,09,12.10
2011,07,22,00,10,12.10
2011,07,22,00,11,12.00
2011,07,22,00,12,11.90
2011,07,22,00,13,11.90
2011,07,22,00,14,11.80
2011,07,22,00,15,11.80
2011,07,22,00,16,11.80
2011,07,22,00,17,11.80
2011,07,22,00,18,11.70
2011,07,22,00,19,11.70
2011,07,22,00,20,11.70
2011,07,22,00,21,11.60
2011,07,22,00,22,11.60
2011,07,22,00,23,11.60
2011,07,22,00,24,11.50
2011,07,22,00,25,11.50
2011,07,22,00,26,11.40
2011,07,22,00,27,11.40
2011,07,22,00,28,11.40
2011,07,22,00,29,11.40
2011,07,22,00,30,11.40
2011,07,22,00,31,11.30
2011,07,22,00,32,11.30
2011,07,22,00,33,11.30
2011,07,22,00,34,11.30
2011,07,22,00,35,11.30
2011,07,22,00,36,11.20
2011,07,22,00,37,11.20
2011,07,22,00,38,11.20
2011,07,22,00,39,11.20
2011,07,22,00,40,11.30
2011,07,22,00,41,11.30
2011,07,22,00,42,11.30
2011,07,22,00,43,11.40
2011,07,22,00,44,11.40
2011,07,22,00,45,11.40
2011,07,22,00,46,11.50
2011,07,22,00,47,11.50
2011,07,22,00,48,11.50
2011,07,22,00,49,11.50
2011,07,22,00,50,11.60
2011,07,22,00,51,11.60
2011,07,22,00,52,11.60
2011,07,22,00,53,11.60
2011,07,22,00,54,11.60
2011,07,22,00,55,11.70
2011,07,22,00,56,11.70
2011,07,22,00,57,11.70
2011,07,22,00,58,11.70
2011,07,22,00,59,11.70
2011,07,22,01,00,11.60
2011,07,22,01,01,11.60
2011,07,22,01,02,11.60
2011,07,22,01,03,11.50
2011,07,22,01,04,11.50
2011,07,22,01,05,11.40
2011,07,22,01,06,11.40
2011,07,22,01,07,11.40
2011,07,22,01,08,11.40
2011,07,22,01,09,11.40
2011,07,22,01,10,11.40
2011,07,22,01,11,11.40
2011,07,22,01,12,11.30
2011,07,22,01,13,11.30
2011,07,22,01,14,11.30
2011,07,22,01,15,11.30
2011,07,22,01,16,11.20
2011,07,22,01,17,11.20
2011,07,22,01,18,11.10
2011,07,22,01,19,11.10
2011,07,22,01,20,11.00
2011,07,22,01,21,11.00
2011,07,22,01,22,11.00
2011,07,22,01,23,11.00
2011,07,22,01,24,10.90
2011,07,22,01,25,10.90
2011,07,22,01,26,11.00
2011,07,22,01,27,11.00
2011,07,22,01,28,11.00
2011,07,22,01,29,11.10
2011,07,22,01,30,11.00
2011,07,22,01,31,11.00
2011,07,22,01,32,10.90
2011,07,22,01,33,10.80
2011,07,22,01,34,10.80
2011,07,22,01,35,10.80
2011,07,22,01,36,10.70
2011,07,22,01,37,10.70
2011,07,22,01,38,10.70
2011,07,22,01,39,10.70
2011,07,22,01,40,10.70
2011,07,22,01,41,10.80
2011,07,22,01,42,10.80
2011,07,22,01,43,10.80
2011,07,22,01,44,10.80
2011,07,22,01,45,10.80
2011,07,22,01,46,10.80
2011,07,22,01,47,10.80
2011,07,22,01,48,10.90
2011,07,22,01,49,10.90
2011,07,22,01,50,10.90
2011,07,22,01,51,10.90
2011,07,22,01,52,11.00
2011,07,22,01,53,11.00
2011,07,22,01,54,11.10
2011,07,22,01,55,11.10
2011,07,22,01,56,11.20
2011,07,22,01,57,11.20
2011,07,22,01,58,11.20
2011,07,22,01,59,11.30
2011,07,22,02,00,11.30
2011,07,22,02,01,11.30
2011,07,22,02,02,11.40
2011,07,22,02,03,11.40
2011,07,22,02,04,11.40
2011,07,22,02,05,11.40
2011,07,22,02,06,11.50
2011,07,22,02,07,11.50
2011,07,22,02,08,11.50
2011,07,22,02,09,11.50
2011,07,22,02,10,11.50
2011,07,22,02,11,11.50
2011,07,22,02,12,11.50
2011,07,22,02,13,11.50
2011,07,22,02,14,11.50
2011,07,22,02,15,11.50
2011,07,22,02,16,11.50
2011,07,22,02,17,11.40
2011,07,22,02,18,11.40
2011,07,22,02,19,11.40
2011,07,22,02,20,11.30
2011,07,22,02,21,11.30
2011,07,22,02,22,11.30
2011,07,22,02,23,11.20
2011,07,22,02,24,11.20
2011,07,22,02,25,11.20
2011,07,22,02,26,11.20
2011,07,22,02,27,11.20
2011,07,22,02,28,11.20
2011,07,22,02,29,11.20
2011,07,22,02,30,11.30
2011,07,22,02,31,11.30
2011,07,22,02,32,11.30
2011,07,22,02,33,11.40
2011,07,22,02,34,11.40
2011,07,22,02,35,11.40
2011,07,22,02,36,11.40
2011,07,22,02,37,11.30
2011,07,22,02,38,11.30
2011,07,22,02,39,11.20
2011,07,22,02,40,11.20
2011,07,22,02,41,11.20
2011,07,22,02,42,11.10
2011,07,22,02,43,11.10
2011,07,22,02,44,11.10
2011,07,22,02,45,11.10
2011,07,22,02,46,11.00
2011,07,22,02,47,11.00
2011,07,22,02,48,11.00
2011,07,22,02,49,11.00
2011,07,22,02,50,11.10
2011,07,22,02,51,11.10
2011,07,22,02,52,11.10
2011,07,22,02,53,11.20
2011,07,22,02,54,11.20
2011,07,22,02,55,11.20
2011,07,22,02,56,11.30
2011,07,22,02,57,11.30
2011,07,22,02,58,11.30
2011,07,22,02,59,11.40
2011,07,22,03,00,11.40
2011,07,22,03,01,11.50
2011,07,22,03,02,11.50
2011,07,22,03,03,11.50
2011,07,22,03,04,11.50
2011,07,22,03,05,11.50
2011,07,22,03,06,11.50
2011,07,22,03,07,11.50
2011,07,22,03,08,11.50
2011,07,22,03,09,11.50
2011,07,22,03,10,11.50
2011,07,22,03,11,11.40
2011,07,22,03,12,11.40
2011,07,22,03,13,11.40
2011,07,22,03,14,11.40
2011,07,22,03,15,11.40
2011,07,22,03,16,11.30
2011,07,22,03,17,11.30
2011,07,22,03,18,11.30
2011,07,22,03,19,11.20
2011,07,22,03,20,11.20
2011,07,22,03,21,11.20
2011,07,22,03,22,11.10
2011,07,22,03,23,11.10
2011,07,22,03,24,11.00
2011,07,22,03,25,11.00
2011,07,22,03,26,10.90
2011,07,22,03,27,10.90
2011,07,22,03,28,10.80
2011,07,22,03,29,10.80
2011,07,22,03,30,10.80
2011,07,22,03,31,10.80
2011,07,22,03,32,10.70
2011,07,22,03,33,10.70
2011,07,22,03,34,10.70
2011,07,22,03,35,10.70
2011,07,22,03,36,10.60
2011,07,22,03,37,10.60
2011,07,22,03,38,10.60
2011,07,22,03,39,10.50
2011,07,22,03,40,10.50
2011,07,22,03,41,10.50
2011,07,22,03,42,10.50
2011,07,22,03,43,10.50
2011,07,22,03,44,10.40
2011,07,22,03,45,10.40
2011,07,22,03,46,10.40
2011,07,22,03,47,10.40
2011,07,22,03,48,10.40
2011,07,22,03,49,10.40
2011,07,22,03,50,10.30
2011,07,22,03,51,10.30
2011,07,22,03,52,10.30
2011,07,22,03,53,10.30
2011,07,22,03,54,10.30
2011,07,22,03,55,10.30
2011,07,22,03,56,10.30
2011,07,22,03,57,10.30
2011,07,22,03,58,10.30
2011,07,22,03,59,10.30
2011,07,22,04,00,10.30
2011,07,22,04,01,10.30
2011,07,22,04,02,10.30
2011,07,22,04,03,10.30
2011,07,22,04,04,10.30
2011,07,22,04,05,10.30
2011,07,22,04,06,10.30
2011,07,22,04,07,10.30
2011,07,22,04,08,10.40
2011,07,22,04,09,10.40
2011,07,22,04,10,10.40
2011,07,22,04,11,10.50
2011,07,22,04,12,10.60
2011,07,22,04,13,10.70
2011,07,22,04,14,10.70
2011,07,22,04,15,10.80
2011,07,22,04,16,10.80
2011,07,22,04,17,10.90
2011,07,22,04,18,10.90
2011,07,22,04,19,10.90
2011,07,22,04,20,11.00
2011,07,22,04,21,11.00
2011,07,22,04,22,11.00
2011,07,22,04,23,11.10
2011,07,22,04,24,11.10
2011,07,22,04,25,11.10
2011,07,22,04,26,11.10
2011,07,22,04,27,11.10
2011,07,22,04,28,11.10
2011,07,22,04,29,11.10
2011,07,22,04,30,11.10
2011,07,22,04,31,11.10
2011,07,22,04,32,11.10
2011,07,22,04,33,11.10
2011,07,22,04,34,11.10
2011,07,22,04,35,11.10
2011,07,22,04,36,11.10
2011,07,22,04,37,11.00
2011,07,22,04,38,11.00
2011,07,22,04,39,11.00
2011,07,22,04,40,11.00
2011,07,22,04,41,10.90
2011,07,22,04,42,10.90
2011,07,22,04,43,10.90
2011,07,22,04,44,10.90
2011,07,22,04,45,10.90
2011,07,22,04,46,10.90
2011,07,22,04,47,10.80
2011,07,22,04,48,10.80
2011,07,22,04,49,10.80
2011,07,22,04,50,10.80
2011,07,22,04,51,10.80
2011,07,22,04,52,10.80
2011,07,22,04,53,10.80
2011,07,22,04,54,10.80
2011,07,22,04,55,10.80
2011,07,22,04,56,10.80
2011,07,22,04,57,10.80
2011,07,22,04,58,10.80
2011,07,22,04,59,10.80
2011,07,22,05,00,10.70
2011,07,22,05,01,10.70
2011,07,22,05,02,10.70
2011,07,22,05,03,10.70
2011,07,22,05,04,10.60
2011,07,22,05,05,10.60
2011,07,22,05,06,10.60
2011,07,22,05,07,10.60
2011,07,22,05,08,10.60
2011,07,22,05,09,10.50
2011,07,22,05,10,10.50
2011,07,22,05,11,10.50
2011,07,22,05,12,10.50
2011,07,22,05,13,10.60
2011,07,22,05,14,10.60
2011,07,22,05,15,10.60
2011,07,22,05,16,10.60
2011,07,22,05,17,10.60
2011,07,22,05,18,10.60
2011,07,22,05,19,10.60
2011,07,22,05,20,10.60
2011,07,22,05,21,10.60
2011,07,22,05,22,10.60
2011,07,22,05,23,10.50
2011,07,22,05,24,10.50
2011,07,22,05,25,10.50
2011,07,22,05,26,10.40
2011,07,22,05,27,10.40
2011,07,22,05,28,10.40
2011,07,22,05,29,10.40
2011,07,22,05,30,10.40
2011,07,22,05,31,10.40
2011,07,22,05,32,10.40
2011,07,22,05,33,10.40
2011,07,22,05,34,10.30
2011,07,22,05,35,10.30
2011,07,22,05,36,10.30
2011,07,22,05,37,10.30
2011,07,22,05,38,10.20
2011,07,22,05,39,10.20
2011,07,22,05,40,10.20
2011,07,22,05,41,10.10
2011,07,22,05,42,10.10
2011,07,22,05,43,10.10
2011,07,22,05,44,10.10
2011,07,22,05,45,10.00
2011,07,22,05,46,10.00
2011,07,22,05,47,10.00
2011,07,22,05,48,10.00
2011,07,22,05,49,10.00
2011,07,22,05,50,10.00
2011,07,22,05,51,10.00
2011,07,22,05,52,10.00
2011,07,22,05,53,10.00
2011,07,22,05,54,10.00
2011,07,22,05,55,10.00
2011,07,22,05,56,10.00
2011,07,22,05,57,10.00
2011,07,22,05,58,10.00
2011,07,22,05,59,10.00
2011,07,22,06,00,10.00
2011,07,22,06,01,10.00
2011,07,22,06,02,10.00
2011,07,22,06,03,10.00
2011,07,22,06,04,10.00
2011,07,22,06,05,10.00
2011,07,22,06,06,10.00
2011,07,22,06,07,10.00
2011,07,22,06,08,10.00
2011,07,22,06,09,10.00
2011,07,22,06,10,10.00
2011,07,22,06,11,10.00
2011,07,22,06,12,10.00
2011,07,22,06,13,10.00
2011,07,22,06,14,10.00
2011,07,22,06,15,10.00
2011,07,22,06,16,9.90
2011,07,22,06,17,9.90
2011,07,22,06,18,9.90
2011,07,22,06,19,9.90
2011,07,22,06,20,10.00
2011,07,22,06,21,10.00
2011,07,22,06,22,10.00
2011,07,22,06,23,10.00
2011,07,22,06,24,10.00
2011,07,22,06,25,10.10
2011,07,22,06,26,10.10
2011,07,22,06,27,10.10
2011,07,22,06,28,10.10
2011,07,22,06,29,10.20
2011,07,22,06,30,10.20
2011,07,22,06,31,10.20
2011,07,22,06,32,10.20
2011,07,22,06,33,10.20
2011,07,22,06,34,10.30
2011,07,22,06,35,10.30
2011,07,22,06,36,10.30
2011,07,22,06,37,10.30
2011,07,22,06,38,10.30
2011,07,22,06,39,10.30
2011,07,22,06,40,10.30
2011,07,22,06,41,10.30
2011,07,22,06,42,10.30
2011,07,22,06,43,10.40
2011,07,22,06,44,10.40
2011,07,22,06,45,10.50
2011,07,22,06,46,10.50
2011,07,22,06,47,10.60
2011,07,22,06,48,10.60
2011,07,22,06,49,10.70
2011,07,22,06,50,10.70
2011,07,22,06,51,10.80
2011,07,22,06,52,10.90
2011,07,22,06,53,10.90
2011,07,22,06,54,11.00
2011,07,22,06,55,11.10
2011,07,22,06,56,11.20
2011,07,22,06,57,11.40
2011,07,22,06,58,11.50
2011,07,22,06,59,11.50
2011,07,22,07,00,11.60
2011,07,22,07,01,11.70
2011,07,22,07,02,11.80
2011,07,22,07,03,11.90
2011,07,22,07,04,11.90
2011,07,22,07,05,12.00
2011,07,22,07,06,12.10
2011,07,22,07,07,12.20
2011,07,22,07,08,12.20
2011,07,22,07,09,12.30
2011,07,22,07,10,12.40
2011,07,22,07,11,12.50
2011,07,22,07,12,12.50
2011,07,22,07,13,12.60
2011,07,22,07,14,12.60
2011,07,22,07,15,12.70
2011,07,22,07,16,12.70
2011,07,22,07,17,12.80
2011,07,22,07,18,12.90
2011,07,22,07,19,12.90
2011,07,22,07,20,13.00
2011,07,22,07,21,13.10
2011,07,22,07,22,13.10
2011,07,22,07,23,13.20
2011,07,22,07,24,13.20
2011,07,22,07,25,13.20
2011,07,22,07,26,13.20
2011,07,22,07,27,13.30
2011,07,22,07,28,13.30
2011,07,22,07,29,13.40
2011,07,22,07,30,13.50
2011,07,22,07,31,13.50
2011,07,22,07,32,13.60
2011,07,22,07,33,13.60
2011,07,22,07,34,13.60
2011,07,22,07,35,13.60
2011,07,22,07,36,13.70
2011,07,22,07,37,13.70
2011,07,22,07,38,13.70
2011,07,22,07,39,13.70
2011,07,22,07,40,13.70
2011,07,22,07,41,13.80
2011,07,22,07,42,13.80
2011,07,22,07,43,13.80
2011,07,22,07,44,13.80
2011,07,22,07,45,13.90
2011,07,22,07,46,13.90
2011,07,22,07,47,13.90
2011,07,22,07,48,13.90
2011,07,22,07,49,13.90
2011,07,22,07,50,13.90
2011,07,22,07,51,13.90
2011,07,22,07,52,13.90
2011,07,22,07,53,13.90
2011,07,22,07,54,14.00
2011,07,22,07,55,14.00
2011,07,22,07,56,14.00
2011,07,22,07,57,14.10
2011,07,22,07,58,14.10
2011,07,22,07,59,14.10
2011,07,22,08,00,14.20
2011,07,22,08,01,14.20
2011,07,22,08,02,14.20
2011,07,22,08,03,14.20
2011,07,22,08,04,14.30
2011,07,22,08,05,14.30
2011,07,22,08,06,14.40
2011,07,22,08,07,14.40
2011,07,22,08,08,14.50
2011,07,22,08,09,14.60
2011,07,22,08,10,14.60
2011,07,22,08,11,14.60
2011,07,22,08,12,14.60
2011,07,22,08,13,14.70
2011,07,22,08,14,14.70
2011,07,22,08,15,14.70
2011,07,22,08,16,14.80
2011,07,22,08,17,14.80
2011,07,22,08,18,14.90
2011,07,22,08,19,15.00
2011,07,22,08,20,15.00
2011,07,22,08,21,15.00
2011,07,22,08,22,15.00
2011,07,22,08,23,15.00
2011,07,22,08,24,15.00
2011,07,22,08,25,15.10
2011,07,22,08,26,15.20
2011,07,22,08,27,15.30
2011,07,22,08,28,15.40
2011,07,22,08,29,15.40
2011,07,22,08,30,15.50
2011,07,22,08,31,15.50
2011,07,22,08,32,15.60
2011,07,22,08,33,15.60
2011,07,22,08,34,15.60
2011,07,22,08,35,15.70
2011,07,22,08,36,15.80
2011,07,22,08,37,15.80
2011,07,22,08,38,15.90
2011,07,22,08,39,15.90
2011,07,22,08,40,15.90
2011,07,22,08,41,15.90
2011,07,22,08,42,15.80
2011,07,22,08,43,15.80
2011,07,22,08,44,15.80
2011,07,22,08,45,15.70
2011,07,22,08,46,15.70
2011,07,22,08,47,15.80
2011,07,22,08,48,15.80
2011,07,22,08,49,15.80
2011,07,22,08,50,15.80
2011,07,22,08,51,15.80
2011,07,22,08,52,15.90
2011,07,22,08,53,15.90
2011,07,22,08,54,15.90
2011,07,22,08,55,15.90
2011,07,22,08,56,15.90
2011,07,22,08,57,15.90
2011,07,22,08,58,15.90
2011,07,22,08,59,15.90
2011,07,22,09,00,15.90
2011,07,22,09,01,15.90
2011,07,22,09,02,15.90
2011,07,22,09,03,16.00
2011,07,22,09,04,16.00
2011,07,22,09,05,16.10
2011,07,22,09,06,16.10
2011,07,22,09,07,16.10
2011,07,22,09,08,16.20
2011,07,22,09,09,16.30
2011,07,22,09,10,16.40
2011,07,22,09,11,16.60
2011,07,22,09,12,16.70
2011,07,22,09,13,16.80
2011,07,22,09,14,16.80
2011,07,22,09,15,16.80
2011,07,22,09,16,16.80
2011,07,22,09,17,16.80
2011,07,22,09,18,16.80
2011,07,22,09,19,16.70
2011,07,22,09,20,16.70
2011,07,22,09,21,16.70
2011,07,22,09,22,16.70
2011,07,22,09,23,16.80
2011,07,22,09,24,16.80
2011,07,22,09,25,16.80
2011,07,22,09,26,16.90
2011,07,22,09,27,16.90
2011,07,22,09,28,16.90
2011,07,22,09,29,16.90
2011,07,22,09,30,16.90
2011,07,22,09,31,16.90
2011,07,22,09,32,16.90
2011,07,22,09,33,16.90
2011,07,22,09,34,16.90
2011,07,22,09,35,16.90
2011,07,22,09,36,16.90
2011,07,22,09,37,16.80
2011,07,22,09,38,16.90
2011,07,22,09,39,16.90
2011,07,22,09,40,16.90
2011,07,22,09,41,17.00
2011,07,22,09,42,17.00
2011,07,22,09,43,17.00
2011,07,22,09,44,17.10
2011,07,22,09,45,17.20
2011,07,22,09,46,17.20
2011,07,22,09,47,17.30
2011,07,22,09,48,17.30
2011,07,22,09,49,17.30
2011,07,22,09,50,17.30
2011,07,22,09,51,17.30
2011,07,22,09,52,17.20
2011,07,22,09,53,17.20
2011,07,22,09,54,17.10
2011,07,22,09,55,17.20
2011,07,22,09,56,17.20
2011,07,22,09,57,17.20
2011,07,22,09,58,17.20
2011,07,22,09,59,17.20
2011,07,22,10,00,17.30
2011,07,22,10,01,17.30
2011,07,22,10,02,17.40
2011,07,22,10,03,17.40
2011,07,22,10,04,17.40
2011,07,22,10,05,17.50
2011,07,22,10,06,17.60
2011,07,22,10,07,17.60
2011,07,22,10,08,17.60
2011,07,22,10,09,17.50
2011,07,22,10,10,17.50
2011,07,22,10,11,17.50
2011,07,22,10,12,17.50
2011,07,22,10,13,17.60
2011,07,22,10,14,17.60
2011,07,22,10,15,17.60
2011,07,22,10,16,17.60
2011,07,22,10,17,17.60
2011,07,22,10,18,17.60
2011,07,22,10,19,17.50
2011,07,22,10,20,17.40
2011,07,22,10,21,17.40
2011,07,22,10,22,17.40
2011,07,22,10,23,17.50
2011,07,22,10,24,17.50
2011,07,22,10,25,17.60
2011,07,22,10,26,17.70
2011,07,22,10,27,17.80
2011,07,22,10,28,17.80
2011,07,22,10,29,17.80
2011,07,22,10,30,17.70
2011,07,22,10,31,17.70
2011,07,22,10,32,17.70
2011,07,22,10,33,17.70
2011,07,22,10,34,17.70
2011,07,22,10,35,17.60
2011,07,22,10,36,17.50
2011,07,22,10,37,17.40
2011,07,22,10,38,17.40
2011,07,22,10,39,17.40
2011,07,22,10,40,17.40
2011,07,22,10,41,17.40
2011,07,22,10,42,17.50
2011,07,22,10,43,17.50
2011,07,22,10,44,17.60
2011,07,22,10,45,17.60
2011,07,22,10,46,17.60
2011,07,22,10,47,17.70
2011,07,22,10,48,17.80
2011,07,22,10,49,17.70
2011,07,22,10,50,17.60
2011,07,22,10,51,17.60
2011,07,22,10,52,17.70
2011,07,22,10,53,17.90
2011,07,22,10,54,18.00
2011,07,22,10,55,18.00
2011,07,22,10,56,18.10
2011,07,22,10,57,18.10
2011,07,22,10,58,18.20
2011,07,22,10,59,18.20
2011,07,22,11,00,18.30
2011,07,22,11,01,18.30
2011,07,22,11,02,18.20
2011,07,22,11,03,18.10
2011,07,22,11,04,17.90
2011,07,22,11,05,17.60
2011,07,22,11,06,17.60
2011,07,22,11,07,17.50
2011,07,22,11,08,17.50
2011,07,22,11,09,17.50
2011,07,22,11,10,17.50
2011,07,22,11,11,17.50
2011,07,22,11,12,17.50
2011,07,22,11,13,17.60
2011,07,22,11,14,17.70
2011,07,22,11,15,17.80
2011,07,22,11,16,17.90
2011,07,22,11,17,18.10
2011,07,22,11,18,18.20
2011,07,22,11,19,18.40
2011,07,22,11,20,18.40
2011,07,22,11,21,18.40
2011,07,22,11,22,18.40
2011,07,22,11,23,18.50
2011,07,22,11,24,18.50
2011,07,22,11,25,18.40
2011,07,22,11,26,18.10
2011,07,22,11,27,17.90
2011,07,22,11,28,17.80
2011,07,22,11,29,17.60
2011,07,22,11,30,17.60
2011,07,22,11,31,17.50
2011,07,22,11,32,17.30
2011,07,22,11,33,17.30
2011,07,22,11,34,17.20
2011,07,22,11,35,17.20
2011,07,22,11,36,17.10
2011,07,22,11,37,17.10
2011,07,22,11,38,17.10
2011,07,22,11,39,17.10
2011,07,22,11,40,17.00
2011,07,22,11,41,16.90
2011,07,22,11,42,16.90
2011,07,22,11,43,16.80
2011,07,22,11,44,16.80
2011,07,22,11,45,16.70
2011,07,22,11,46,16.60
2011,07,22,11,47,16.60
2011,07,22,11,48,16.60
2011,07,22,11,49,16.60
2011,07,22,11,50,16.60
2011,07,22,11,51,16.60
2011,07,22,11,52,16.60
2011,07,22,11,53,16.70
2011,07,22,11,54,16.70
2011,07,22,11,55,16.70
2011,07,22,11,56,16.70
2011,07,22,11,57,16.60
2011,07,22,11,58,16.60
2011,07,22,11,59,16.50
2011,07,22,12,00,16.50
2011,07,22,12,01,16.50
2011,07,22,12,02,16.50
2011,07,22,12,03,16.50
2011,07,22,12,04,16.50
2011,07,22,12,05,16.50
2011,07,22,12,06,16.40
2011,07,22,12,07,16.40
2011,07,22,12,08,16.40
2011,07,22,12,09,16.40
2011,07,22,12,10,16.40
2011,07,22,12,11,16.40
2011,07,22,12,12,16.40
2011,07,22,12,13,16.50
2011,07,22,12,14,16.50
2011,07,22,12,15,16.50
2011,07,22,12,16,16.50
2011,07,22,12,17,16.60
2011,07,22,12,18,16.70
2011,07,22,12,19,16.80
2011,07,22,12,20,16.90
2011,07,22,12,21,16.90
2011,07,22,12,22,16.90
2011,07,22,12,23,16.80
2011,07,22,12,24,16.80
2011,07,22,12,25,16.80
2011,07,22,12,26,16.90
2011,07,22,12,27,16.90
2011,07,22,12,28,16.90
2011,07,22,12,29,16.90
2011,07,22,12,30,17.00
2011,07,22,12,31,17.00
2011,07,22,12,32,17.10
2011,07,22,12,33,17.10
2011,07,22,12,34,17.10
2011,07,22,12,35,17.10
2011,07,22,12,36,17.10
2011,07,22,12,37,17.10
2011,07,22,12,38,17.10
2011,07,22,12,39,17.10
2011,07,22,12,40,17.10
2011,07,22,12,41,17.10
2011,07,22,12,42,17.10
2011,07,22,12,43,17.10
2011,07,22,12,44,17.10
2011,07,22,12,45,17.20
2011,07,22,12,46,17.20
2011,07,22,12,47,17.30
2011,07,22,12,48,17.30
2011,07,22,12,49,17.30
2011,07,22,12,50,17.40
2011,07,22,12,51,17.40
2011,07,22,12,52,17.50
2011,07,22,12,53,17.60
2011,07,22,12,54,17.70
2011,07,22,12,55,17.60
2011,07,22,12,56,17.60
2011,07,22,12,57,17.60
2011,07,22,12,58,17.60
2011,07,22,12,59,17.50
2011,07,22,13,00,17.50
2011,07,22,13,01,17.50
2011,07,22,13,02,17.60
2011,07,22,13,03,17.70
2011,07,22,13,04,17.70
2011,07,22,13,05,17.80
2011,07,22,13,06,17.80
2011,07,22,13,07,17.80
2011,07,22,13,08,17.80
2011,07,22,13,09,17.80
2011,07,22,13,10,17.80
2011,07,22,13,11,17.80
2011,07,22,13,12,17.80
2011,07,22,13,13,17.80
2011,07,22,13,14,17.80
2011,07,22,13,15,17.90
2011,07,22,13,16,17.90
2011,07,22,13,17,17.90
2011,07,22,13,18,17.90
2011,07,22,13,19,17.80
2011,07,22,13,20,17.70
2011,07,22,13,21,17.70
2011,07,22,13,22,17.60
2011,07,22,13,23,17.60
2011,07,22,13,24,17.50
2011,07,22,13,25,17.50
2011,07,22,13,26,17.40
2011,07,22,13,27,17.40
2011,07,22,13,28,17.40
2011,07,22,13,29,17.40
2011,07,22,13,30,17.30
2011,07,22,13,31,17.20
2011,07,22,13,32,17.20
2011,07,22,13,33,17.10
2011,07,22,13,34,17.00
2011,07,22,13,35,16.90
2011,07,22,13,36,16.90
2011,07,22,13,37,16.80
2011,07,22,13,38,16.80
2011,07,22,13,39,16.80
2011,07,22,13,40,16.70
2011,07,22,13,41,16.70
2011,07,22,13,42,16.70
2011,07,22,13,43,16.70
2011,07,22,13,44,16.70
2011,07,22,13,45,16.70
2011,07,22,13,46,16.70
2011,07,22,13,47,16.70
2011,07,22,13,48,16.70
2011,07,22,13,49,16.70
2011,07,22,13,50,16.80
2011,07,22,13,51,16.80
2011,07,22,13,52,16.80
2011,07,22,13,53,16.80
2011,07,22,13,54,16.80
2011,07,22,13,55,16.80
2011,07,22,13,56,16.90
2011,07,22,13,57,16.90
2011,07,22,13,58,16.90
2011,07,22,13,59,16.90
2011,07,22,14,00,16.90
2011,07,22,14,01,17.00
2011,07,22,14,02,17.00
2011,07,22,14,03,17.10
2011,07,22,14,04,17.10
2011,07,22,14,05,17.20
2011,07,22,14,06,17.30
2011,07,22,14,07,17.30
2011,07,22,14,08,17.40
2011,07,22,14,09,17.50
2011,07,22,14,10,17.50
2011,07,22,14,11,17.60
2011,07,22,14,12,17.70
2011,07,22,14,13,17.80
2011,07,22,14,14,17.80
2011,07,22,14,15,17.80
2011,07,22,14,16,17.80
2011,07,22,14,17,17.80
2011,07,22,14,18,17.80
2011,07,22,14,19,17.70
2011,07,22,14,20,17.70
2011,07,22,14,21,17.70
2011,07,22,14,22,17.60
2011,07,22,14,23,17.60
2011,07,22,14,24,17.60
2011,07,22,14,25,17.60
2011,07,22,14,26,17.60
2011,07,22,14,27,17.70
2011,07,22,14,28,17.70
2011,07,22,14,29,17.70
2011,07,22,14,30,17.70
2011,07,22,14,31,17.80
2011,07,22,14,32,17.90
2011,07,22,14,33,18.00
2011,07,22,14,34,18.10
2011,07,22,14,35,18.20
2011,07,22,14,36,18.30
2011,07,22,14,37,18.30
2011,07,22,14,38,18.40
2011,07,22,14,39,18.40
2011,07,22,14,40,18.40
2011,07,22,14,41,18.40
2011,07,22,14,42,18.40
2011,07,22,14,43,18.30
2011,07,22,14,44,18.20
2011,07,22,14,45,18.00
2011,07,22,14,46,17.90
2011,07,22,14,47,17.80
2011,07,22,14,48,17.70
2011,07,22,14,49,17.70
2011,07,22,14,50,17.70
2011,07,22,14,51,17.60
2011,07,22,14,52,17.60
2011,07,22,14,53,17.60
2011,07,22,14,54,17.60
2011,07,22,14,55,17.60
2011,07,22,14,56,17.50
2011,07,22,14,57,17.50
2011,07,22,14,58,17.50
2011,07,22,14,59,17.40
2011,07,22,15,00,17.40
2011,07,22,15,01,17.40
2011,07,22,15,02,17.40
2011,07,22,15,03,17.40
2011,07,22,15,04,17.40
2011,07,22,15,05,17.40
2011,07,22,15,06,17.40
2011,07,22,15,07,17.50
2011,07,22,15,08,17.40
2011,07,22,15,09,17.40
2011,07,22,15,10,17.40
2011,07,22,15,11,17.40
2011,07,22,15,12,17.40
2011,07,22,15,13,17.50
2011,07,22,15,14,17.50
2011,07,22,15,15,17.50
2011,07,22,15,16,17.50
2011,07,22,15,17,17.50
2011,07,22,15,18,17.60
2011,07,22,15,19,17.60
2011,07,22,15,20,17.70
2011,07,22,15,21,17.70
2011,07,22,15,22,17.70
2011,07,22,15,23,17.80
2011,07,22,15,24,17.90
2011,07,22,15,25,17.90
2011,07,22,15,26,17.90
2011,07,22,15,27,17.90
2011,07,22,15,28,17.90
2011,07,22,15,29,18.00
2011,07,22,15,30,18.00
2011,07,22,15,31,18.10
2011,07,22,15,32,18.20
2011,07,22,15,33,18.30
2011,07,22,15,34,18.50
2011,07,22,15,35,18.70
2011,07,22,15,36,18.80
2011,07,22,15,37,19.00
2011,07,22,15,38,19.20
2011,07,22,15,39,19.30
2011,07,22,15,40,19.50
2011,07,22,15,41,19.50
2011,07,22,15,42,19.70
2011,07,22,15,43,19.70
2011,07,22,15,44,19.80
2011,07,22,15,45,19.80
2011,07,22,15,46,19.90
2011,07,22,15,47,20.00
2011,07,22,15,48,20.10
2011,07,22,15,49,20.20
2011,07,22,15,50,20.20
2011,07,22,15,51,20.20
2011,07,22,15,52,20.20
2011,07,22,15,53,20.10
2011,07,22,15,54,20.10
2011,07,22,15,55,20.20
2011,07,22,15,56,20.30
2011,07,22,15,57,20.30
2011,07,22,15,58,20.30
2011,07,22,15,59,20.30
2011,07,22,16,00,20.40
2011,07,22,16,01,20.40
2011,07,22,16,02,20.40
2011,07,22,16,03,20.40
2011,07,22,16,04,20.30
2011,07,22,16,05,20.30
2011,07,22,16,06,20.30
2011,07,22,16,07,20.30
2011,07,22,16,08,20.20
2011,07,22,16,09,20.30
2011,07,22,16,10,20.30
2011,07,22,16,11,20.30
2011,07,22,16,12,20.30
2011,07,22,16,13,20.30
2011,07,22,16,14,20.30
2011,07,22,16,15,20.40
2011,07,22,16,16,20.40
2011,07,22,16,17,20.50
2011,07,22,16,18,20.50
2011,07,22,16,19,20.40
2011,07,22,16,20,20.40
2011,07,22,16,21,20.30
2011,07,22,16,22,20.30
2011,07,22,16,23,20.40
2011,07,22,16,24,20.40
2011,07,22,16,25,20.30
2011,07,22,16,26,20.20
2011,07,22,16,27,20.10
2011,07,22,16,28,20.10
2011,07,22,16,29,20.10
2011,07,22,16,30,20.20
2011,07,22,16,31,20.20
2011,07,22,16,32,20.20
2011,07,22,16,33,20.10
2011,07,22,16,34,20.00
2011,07,22,16,35,20.00
2011,07,22,16,36,20.00
2011,07,22,16,37,20.00
2011,07,22,16,38,20.10
2011,07,22,16,39,20.10
2011,07,22,16,40,20.20
2011,07,22,16,41,20.20
2011,07,22,16,42,20.30
2011,07,22,16,43,20.30
2011,07,22,16,44,20.40
2011,07,22,16,45,20.50
2011,07,22,16,46,20.60
2011,07,22,16,47,20.70
2011,07,22,16,48,20.60
2011,07,22,16,49,20.50
2011,07,22,16,50,20.30
2011,07,22,16,51,20.10
2011,07,22,16,52,20.00
2011,07,22,16,53,19.90
2011,07,22,16,54,19.90
2011,07,22,16,55,19.90
2011,07,22,16,56,19.90
2011,07,22,16,57,19.90
2011,07,22,16,58,19.90
2011,07,22,16,59,19.80
2011,07,22,17,00,19.80
2011,07,22,17,01,19.80
2011,07,22,17,02,19.80
2011,07,22,17,03,19.80
2011,07,22,17,04,19.80
2011,07,22,17,05,19.80
2011,07,22,17,06,19.70
2011,07,22,17,07,19.60
2011,07,22,17,08,19.60
2011,07,22,17,09,19.60
2011,07,22,17,10,19.70
2011,07,22,17,11,19.70
2011,07,22,17,12,19.60
2011,07,22,17,13,19.50
2011,07,22,17,14,19.30
2011,07,22,17,15,19.30
2011,07,22,17,16,19.20
2011,07,22,17,17,19.20
2011,07,22,17,18,19.20
2011,07,22,17,19,19.20